Regional Weather Roundup
Issued by NWS

Home | Current Version | Previous Version | Text Only | Print | Product List | Glossary Off
Versions: 1 2 3 4 5 6 7 8 9 10 11 12 13 14 15 16 17 18 19 20 21 22 23 24 25 26 27 28 29 30 31 32 33 34 35 36 37 38 39 40 41 42 43 44 45 46 47 48 49 50

000
ASUS43 KIND 180209
RWRIN

WEATHER ROUNDUP FOR INDIANA
NATIONAL WEATHER SERVICE INDIANAPOLIS IN
900 PM EST WED DEC 17 2014

NOTE: "FAIR" INDICATES FEW OR NO CLOUDS BELOW 12,000 FEET WITH NO
SIGNIFICANT WEATHER AND/OR OBSTRUCTIONS TO VISIBILITY.

* - STATION DOES NOT REPORT WEATHER SUCH AS PRECIPITATION OR FOG.

+ - STATION NOT QUALITY CONTROLLED BY THE NATIONAL WEATHER SERVICE.
    USE DATA WITH CAUTION...ESPECIALLY DEWPOINT AND RELATIVE
    HUMIDITY OBSERVATIONS.

INZ001>003-010>013-019-020-180300-
NORTHWEST INDIANA

CITY           SKY/WX    TMP DP  RH WIND       PRES   REMARKS
GARY /AIRPORT/ CLOUDY    28  18  64 W10       30.29R WCI  19
KNOX *+        CLOUDY    27  20  75 W12       30.26R WCI  16
LA PORTE +     CLOUDY    28  22  76 W6        30.26R WCI  22
MICHIGAN CITY+ CLOUDY    28  18  64 W6        30.26R WCI  22
MONTICELLO +   CLOUDY    26  20  79 W6        30.27S WCI  19
RENSSELAER +   CLOUDY    28  25  86 W7        30.27F WCI  21
VALPARAISO     CLOUDY    25  17  72 W6        30.26R WCI  18

$$

LMZ046-743>745-180300-
SOUTHERN LAKE MICHIGAN

STATION/POSITION TIME  TEMP WIND        PRES
                       AIR  DIR/SP/G
                 (UTC) (F)  (DEG/KT/KT) (MB)

$$

INZ004-005-014>016-021>024-180300-
NORTH CENTRAL INDIANA

CITY           SKY/WX    TMP DP  RH WIND       PRES   REMARKS
GOSHEN         CLOUDY    27  22  81 W12       30.22R WCI  17
LOGANSPORT +   CLOUDY    27  19  74 W5        30.27F WCI  21
PERU/GRISSOM   CLOUDY    26  23  88 NW9       30.25S WCI  17
ROCHESTER +    CLOUDY    30  23  74 W9        30.26S WCI  22
SOUTH BEND     CLOUDY    29  19  66 W10       30.24R WCI  20
WARSAW +       CLOUDY    27  21  80 W8        30.24R WCI  18

$$

INZ006>009-017-018-025>027-180300-
NORTHEAST INDIANA

CITY           SKY/WX    TMP DP  RH WIND       PRES   REMARKS
ANGOLA *+      CLOUDY    27  19  74 W7        30.18S WCI  19
AUBURN +       CLOUDY    28  21  74 W8        30.22S WCI  20
FORT WAYNE     CLOUDY    26  20  77 W15       30.24R WCI  14
HUNTINGTON +   CLOUDY    26  20  79 W9        30.25R WCI  16

$$

INZ028-029-035-036-043>045-051>053-180300-
WEST CENTRAL INDIANA

CITY           SKY/WX    TMP DP  RH WIND       PRES   REMARKS
GREENCASTLE +  CLOUDY    25  18  74 CALM      30.29S
LAFAYETTE      CLOUDY    25  20  81 W6        30.29S WCI  18
TERRE HAUTE    CLOUDY    24  19  81 W6        30.32R WCI  17

$$

INZ030>032-037>040-046>048-054>057-064-065-180300-
CENTRAL INDIANA

CITY           SKY/WX    TMP DP  RH WIND       PRES   REMARKS
CP ATTERBURY + CLOUDY    27  21  80 MISG      30.29S
COLUMBUS       CLOUDY    27  23  86 W12       30.30R WCI  16
FRANKFORT +    CLOUDY    26  22  85 W7        30.28F WCI  18
INDIANAPOLIS   CLOUDY    23  19  85 NW8       30.28R WCI  14
-EAGLE CREEK   CLOUDY    24  19  81 NW12      30.28R WCI  13
KOKOMO *+      CLOUDY    27  19  74 NW6       30.27R WCI  20
MARION +       CLOUDY    26  22  86 NW8       30.27S WCI  17
MT COMFORT *+  CLOUDY    25  19  80 NW8       30.28S WCI  16
SHELBYVILLE    CLOUDY    26  20  77 NW12      30.28R WCI  16
ZIONSVILLE +   CLOUDY    25  19  77 NW9       30.28S WCI  15

$$

INZ033-034-041-042-049-050-058-059-180300-
EAST CENTRAL INDIANA

CITY           SKY/WX    TMP DP  RH WIND       PRES   REMARKS
MUNCIE         CLOUDY    25  20  81 W9        30.26R WCI  15

$$

INZ060-061-067>069-081>083-085>088-180300-
SOUTHWEST INDIANA

CITY           SKY/WX    TMP DP  RH WIND       PRES   REMARKS
EVANSVILLE     PTCLDY    31  25  78 N3        30.31S
HUNTINGBURG *+ PTCLDY    30  21  69 N6        30.30F WCI  24
WASHINGTON +   CLOUDY    30  22  74 N6        30.30S WCI  24

$$

INZ062-063-066-070>080-084-089>092-180300-
SOUTH CENTRAL AND SOUTHEAST INDIANA

CITY           SKY/WX    TMP DP  RH WIND       PRES   REMARKS
BLOOMINGTON    CLOUDY    25  21  85 NW6       30.29R WCI  18

$$



USA.gov is the U.S. government's official web portal to all federal, state and local government web resources and services.